Regional Weather Roundup
Issued by NWS Mt. Holly, NJ

Home | Current Version | Previous Version | Text Only | Print | Product List | Glossary On
Versions: 1 2 3 4 5 6 7 8 9 10 11 12 13 14 15 16 17 18 19 20 21 22 23 24 25 26 27
000
ASUS41 KPHI 110512
RWRPHI

REGIONAL WEATHER ROUNDUP
NATIONAL WEATHER SERVICE MOUNT HOLLY NJ
1200 AM EST MON DEC 11 2017

NOTE:  "FAIR" INDICATES FEW OR NO CLOUDS BELOW 12,000 FEET WITH NO
SIGNIFICANT WEATHER AND/OR OBSTRUCTIONS TO VISIBILITY.

 * = STATION DOES NOT REPORT PRECIPITATION (E.G. RAIN, SNOW, ETC.)
        OR FOG.

NJZ015>026-110600-
SOUTHERN NEW JERSEY

CITY           SKY/WX    TMP DP  RH WIND       PRES   REMARKS
POMONA         CLOUDY    35  29  78 SW6       30.06S WCI  30
WILDWOOD*      CLOUDY    38  30  73 SW13G18   30.07F WCI  30
MILLVILLE      CLOUDY    36  30  79 SW7       30.05F WCI  30
WRIGHTSTOWN    CLOUDY    33  25  74 S7        30.01F WCI  26
MOUNT HOLLY    CLOUDY    33  26  75 VRB3      30.04F
TRENTON        CLOUDY    34  22  61 SW6       30.02F WCI  29

$$
NJZ001>014-110600-
NORTHERN NEW JERSEY

CITY           SKY/WX    TMP DP  RH WIND       PRES   REMARKS
SUSSEX         CLOUDY    32  20  61 SW6       29.97S WCI  26
ANDOVER*         N/A     31  20  63 CALM      29.98S
MORRISTOWN     CLOUDY    32  23  69 S3        30.01S
NEWARK         CLOUDY    34  23  64 SW10      30.02S WCI  26
TETERBORO      CLOUDY    35  22  58 SW8       30.01S WCI  29
CALDWELL       CLOUDY    33  20  58 SW3       30.01S
SOMERVILLE     CLOUDY    30  25  81 S3        30.00F
ALLAIRE*       CLOUDY    33  24  69 SW7       30.04F WCI  27
TOMS RIVER*    CLOUDY    32  26  78 SW6       30.05F WCI  26

$$
PAZ043-044-047-054-055-060>062-066>071-110600-
EASTERN PENNSYLVANIA

CITY           SKY/WX    TMP DP  RH WIND       PRES   REMARKS
PHILADELPHIA   CLOUDY    36  26  67 S9        30.05S WCI  29
NORTH PHILA    CLOUDY    37  24  59 SW6       30.05S WCI  32
BLUE BELL*     CLOUDY    32  23  69 CALM      30.04F
DOYLESTOWN     CLOUDY    32  20  61 SW5       30.00F WCI  27
QUAKERTOWN*    CLOUDY    32  21  64 CALM      30.00F
PERKASIE*      CLOUDY    32  21  64 SW5       30.01F WCI  27
POTTSTOWN      CLOUDY    32  21  64 S3        30.03F
LANCASTER      CLOUDY    34  22  61 SW3       30.01F
COATESVILLE    PTCLDY    32  21  64 CALM      30.02S
READING        CLOUDY    34  23  64 SW8       30.00F WCI  27
ALLENTOWN      CLOUDY    32  21  64 SW7       30.00S WCI  26
MOUNT POCONO   CLOUDY    25  17  72 W9        29.89S WCI  15
HAZLETON       CLOUDY    30  18  59 CALM      29.95S
LEHIGHTON      CLOUDY    30  25  80 CALM      29.99F
WILKES BARRE   CLOUDY    31  19  61 SW8       29.94S WCI  23

$$
DEZALL-MDZ008-012-015-019-020-110600-
DELAWARE AND EASTERN MARYLAND

CITY           SKY/WX    TMP DP  RH WIND       PRES   REMARKS
WILMINGTON     CLOUDY    34  26  72 SW6       30.05S WCI  29
DOVER          CLOUDY    34  33  97 S8        30.05F WCI  27
GEORGETOWN     CLOUDY    34  29  82 SW6       30.07F WCI  29
EASTON         CLOUDY    38  29  71 SW6       30.10S WCI  33
ABERDEEN       CLOUDY   N/A N/A N/A CALM      30.06S
PATUXENT       CLOUDY    36  30  79 SW10      30.07F WCI  28
OCEAN CITY     CLOUDY    36  30  79 SW7       30.10F WCI  30
WALLOPS ISLAND CLOUDY    35  30  82 SW6       30.10F WCI  30
CAMBRIDGE      CLOUDY    37  28  70 S6        30.07F WCI  33
SALISBURY      CLOUDY    32  30  92 S3        30.08F

$$
PAZ001-021-NYZ056-072-MDZ011-DCZ001-110600-
OTHER NEARBY LOCATIONS

CITY           SKY/WX    TMP DP  RH WIND       PRES   REMARKS
HARRISBURG     CLOUDY    36  21  54 W3        30.00F
STATE COLLEGE  CLOUDY    31  18  60 SW8       29.93F WCI  23
WILLIAMSPORT   CLOUDY    34  20  56 CALM      29.96F
BINGHAMTON     CLOUDY    26  16  65 W10       29.86S WCI  16
NEW YORK CITY  CLOUDY    36  21  54 VRB6G18   30.03S WCI  31
BALTIMORE      CLOUDY    34  28  79 CALM      30.05S
WASHINGTON DC  CLOUDY    37  28  70 SW7       30.07R WCI  32

$$




USA.gov is the U.S. government's official web portal to all federal, state and local government web resources and services.